Regional Weather Roundup
Issued by NWS Newport/Morehead, NC

Current Version | Previous Version | Text Only | Print | Product List | Glossary On
Versions: 1 2 3 4 5 6 7 8 9 10 11 12 13 14 15 16 17 18 19 20 21 22 23 24 25 26 27 28 29 30 31 32 33 34 35 36 37 38 39 40 41 42 43 44 45 46 47 48 49 50
000 ASUS42 KMHX 022313 RWRMHX WEATHER ROUNDUP FOR EASTERN NORTH CAROLINA NATIONAL WEATHER SERVICE NEWPORT/MOREHEAD CITY NC 600 PM EST FRI DEC 02 2016 NOTE: "FAIR" INDICATES FEW OR NO CLOUDS BELOW 12,000 FEET WITH NO SIGNIFICANT WEATHER AND/OR OBSTRUCTIONS TO VISIBILITY NCZ015>017-031-032-045>047-102-103-030000- NORTH COAST CITY SKY/WX TMP DP RH WIND PRES REMARKS EDENTON CLEAR 49 38 63 CALM 30.09R ELIZABETH CITY CLEAR 46 33 60 W3 30.07R KITTY HAWK CLEAR 50 39 65 CALM 30.07R MANTEO CLEAR 50 36 58 NW5 30.09R $$ NCZ045>047-081-094-103-104-030000- CENTRAL COAST CITY SKY/WX TMP DP RH WIND PRES REMARKS FRISCO CLEAR 52 39 61 W9 30.09R $$ NCZ095-097-098-100-101-030000- SOUTHERN COAST CITY SKY/WX TMP DP RH WIND PRES REMARKS BEAUFORT CLEAR 51 38 60 W9 30.11R CEDAR ISLAND NOT AVBL JACKSONVILLE CLEAR 50 35 56 W5 30.11R PINEY ISLAND CLEAR N/A N/A N/A NW6 30.10R WILMINGTON CLEAR 49 36 61 CALM 30.13R $$ NCZ011>013-027>030-043-044-078>080-089-090>093-098-030000- COASTAL PLAIN CITY SKY/WX TMP DP RH WIND PRES REMARKS AHOSKIE CLEAR 46 33 61 CALM 30.09S CLINTON CLEAR 48 37 64 CALM 30.12S ELIZABETHTOWN CLEAR 52 36 54 W3 30.12S GOLDSBORO CLEAR 51 31 46 SW5 30.09R GREENVILLE CLEAR 52 32 46 CALM 30.11S HAVELOCK PTCLDY 46 36 68 W5 30.12R KENANSVILLE CLEAR 45 36 70 CALM 30.12R KINSTON CLEAR 41 36 81 CALM 30.11R NEW BERN CLEAR 45 36 70 CALM 30.12R RICHLANDS CLEAR 46 37 71 CALM 30.12R ROCKY MOUNT CLEAR 47 34 60 CALM 30.10R WASHINGTON CLEAR 46 34 62 CALM 30.10R WHITEVILLE CLEAR 51 37 59 CALM 30.13R $$ AMZ130-135-150-152-154-156-158-170-250-252-270-ANZ085-086-088-633-658-670-030000- MARINE OBSERVATIONS STATION/POSITION TIME TEMP WIND PRES WAVE SWELL AIR SEA DIR/SP/G HT/PER HT/PER (UTC) (F) (DEG/KT/KT) (MB) (FT/S) (FT/S) CHESAPEAKE LIGHT NOT AVBL 64 E VA BEACH 2250 52 60 300/ 10/ 14 1017.6 4/ 6 3/ 6 DUCK NOT AVBL 2 E DUCK NOT AVBL OREGON INLET NOT AVBL 13E OREGON INLT NOT AVBL HATTERAS CG NOT AVBL DIAMOND BUOY 2250 56 76 310/ 14/ 17 1018.7 3/ 7 2/ 7 CAPE LOOKOUT 2300 55 300/ 11/ 14 1019.2 BEAUFORT LAB NOT AVBL 30 SE NEW RVR IN NOT AVBL 30 SE NEW RVR IN NOT AVBL 27 SE WRIGHTSVLE NOT AVBL 5 SE WRIGHTSVLE NOT AVBL 225 S CAPE HAT 2250 69 74 310/ 12/ 16 1017.7 4/ 6 3/ 6 41 SE CHARLESTON 2250 60 74 330/ 10/ 16 1020.5 3/ 8 2/ 8 $$

USA.gov is the U.S. government's official web portal to all federal, state and local government web resources and services.